TimeEST,TemperatureF,Dew PointF,Humidity,Sea Level PressureIn,VisibilityMPH,Wind Direction,Wind SpeedMPH,Gust SpeedMPH,PrecipitationIn,Events,Conditions,WindDirDegrees,DateUTC
12:54 AM,37.0,26.1,65,29.80,10.0,SSW,8.1,-,N/A,,Clear,200,2011-11-12 05:54:00
1:54 AM,37.9,27.0,65,29.80,10.0,SSW,11.5,-,N/A,,Clear,210,2011-11-12 06:54:00
2:54 AM,37.0,28.9,73,29.81,10.0,SW,9.2,-,N/A,,Clear,220,2011-11-12 07:54:00
3:54 AM,36.0,30.0,79,29.81,10.0,SSW,9.2,-,N/A,,Clear,200,2011-11-12 08:54:00
4:54 AM,37.4,30.2,75,29.79,10.0,SSW,10.4,-,N/A,,Clear,200,2011-11-12 09:54:00
5:54 AM,37.0,32.0,82,29.83,10.0,SSW,12.7,-,N/A,,Clear,200,2011-11-12 10:54:00
6:54 AM,37.9,32.0,79,29.85,10.0,SSW,11.5,-,N/A,,Clear,210,2011-11-12 11:54:00
7:54 AM,39.0,33.1,79,29.85,10.0,SSW,11.5,-,N/A,,Clear,200,2011-11-12 12:54:00
8:54 AM,43.0,33.1,68,29.87,10.0,SSW,12.7,-,N/A,,Clear,210,2011-11-12 13:54:00
9:54 AM,46.9,34.0,61,29.88,10.0,SSW,19.6,-,N/A,,Clear,210,2011-11-12 14:54:00
10:54 AM,50.0,34.0,54,29.88,10.0,SSW,17.3,-,N/A,,Partly Cloudy,210,2011-11-12 15:54:00
11:54 AM,54.0,36.0,51,29.87,10.0,SSW,16.1,-,N/A,,Scattered Clouds,200,2011-11-12 16:54:00
12:54 PM,57.9,37.0,46,29.86,10.0,SSW,18.4,24.2,N/A,,Scattered Clouds,210,2011-11-12 17:54:00
1:54 PM,59.0,35.6,42,29.83,10.0,SSW,16.1,25.3,N/A,,Mostly Cloudy,210,2011-11-12 18:54:00
2:54 PM,60.1,36.0,41,29.82,10.0,South,13.8,21.9,N/A,,Scattered Clouds,190,2011-11-12 19:54:00
3:54 PM,59.0,34.0,39,29.81,10.0,South,17.3,26.5,N/A,,Mostly Cloudy,180,2011-11-12 20:54:00
4:54 PM,57.9,34.0,41,29.80,10.0,South,16.1,23.0,N/A,,Clear,180,2011-11-12 21:54:00
5:54 PM,55.9,34.0,44,29.78,10.0,SSE,12.7,-,N/A,,Clear,160,2011-11-12 22:54:00
6:54 PM,55.0,33.1,43,29.78,10.0,South,16.1,26.5,N/A,,Clear,180,2011-11-12 23:54:00
7:54 PM,55.0,33.1,43,29.77,10.0,South,16.1,26.5,N/A,,Clear,180,2011-11-13 00:54:00
8:54 PM,54.0,34.0,47,29.75,10.0,South,15.0,-,N/A,,Clear,180,2011-11-13 01:54:00
9:54 PM,54.0,36.0,51,29.75,10.0,South,19.6,27.6,N/A,,Clear,190,2011-11-13 02:54:00
10:54 PM,55.0,37.0,51,29.73,10.0,South,17.3,26.5,N/A,,Overcast,190,2011-11-13 03:54:00
11:54 PM,55.9,39.9,55,29.71,10.0,South,25.3,34.5,N/A,,Overcast,190,2011-11-13 04:54:00